Regional Weather Roundup
Issued by NWS State College, PA

Home | Current Version | Previous Version | Text Only | Print | Product List | Glossary On
Versions: 1 2 3 4 5 6 7 8 9 10 11 12 13 14 15 16 17 18 19 20 21 22 23 24 25 26 27 28 29 30 31 32 33 34 35 36 37 38 39 40 41 42 43 44 45 46 47 48 49 50
000
ASUS41 KCTP 120010
RWRCTP

REGIONAL WEATHER ROUNDUP
NATIONAL WEATHER SERVICE STATE COLLEGE PA
700 PM EST TUE DEC 11 2018

Note: "fair" indicates few or no clouds below 12,000 feet with no
significant weather and/or obstructions to visibility.

* = STATION THAT DOES NOT REPORT PRECIPITATION /E.G. RAIN...SNOW...ETC/
    THUNDER OR FOG.

PAZ002>004-007>009-013>016-020>023-029>032-120100-
WESTERN PENNSYLVANIA

CITY           SKY/WX    TMP DP  RH WIND       PRES   REMARKS
ERIE           MIX PCPN  33  26  75 W9        30.01S
MEADVILLE      CLOUDY    28  25  88 W7        29.99S FOG
FRANKLIN*      NOT AVBL
NEW CASTLE     CLOUDY    32  23  69 SW6       30.02S
BEAVER COUNTY  CLOUDY    30  23  74 S5        30.02R
BUTLER*        CLOUDY    30  24  78 SW8       30.02R
PITTSBURGH INT FAIR      30  21  69 SW7       30.02R
PITTSBURGH     FAIR      29  20  69 SW7       30.02R
INDIANA*       CLOUDY    32  23  69 W12       30.04R
LATROBE        NOT AVBL
WASHINGTON CO* FAIR      29  20  69 SW6       30.06R
$$

PAZ004>006-010>012-017>019-024>028-033>037-041-042-045-046-049>053-120100-
CENTRAL PENNSYLVANIA

CITY           SKY/WX    TMP DP  RH WIND       PRES   REMARKS
BRADFORD       CLOUDY    25  20  81 NW6       29.92R
DUBOIS         CLOUDY    30  20  66 W13       29.95R
CLEARFIELD     CLOUDY    31  20  63 W9        29.97R
JOHNSTOWN      FAIR      28  17  63 W15       29.94R
ALTOONA        FAIR      32  18  56 W10       29.98R
STATE COLLEGE  CLOUDY    32  19  59 W9        29.98R
WILLIAMSPORT   CLOUDY    29  21  72 CALM      29.99R
SELINSGROVE    MOCLDY    26  21  81 CALM      30.00R
FT INDIANTOWN  FAIR      26  18  73 CALM      29.98S
CAPITAL CITY   FAIR      29  19  66 CALM      29.99R
HARRISBURG     FAIR      27  19  72 CALM      29.98S
YORK           FAIR      25  20  81 CALM      29.98S
$$

PAZ038>040-043-044-047-048-054-055-060>062-067>071-120100-
EASTERN PENNSYLVANIA

CITY           SKY/WX    TMP DP  RH WIND       PRES   REMARKS
SCRANTON       CLOUDY    28  20  71 SW5       29.96R HAZE
MOUNT POCONO   CLOUDY    24  18  77 NW8       29.90R
ALLENTOWN      FAIR      29  18  63 SW7       29.99R
QUAKERTOWN*    CLEAR     30  21  69 CALM      29.98S
READING        FAIR      29  22  75 CALM      29.99R
LANCASTER      FAIR      32  22  66 CALM      29.98S
COATESVILLE    FAIR      30  21  69 CALM      29.99S
POTTSTOWN      FAIR      26  19  74 CALM      30.01S
BLUE BELL      FAIR      28  23  80 CALM      30.00F
DOYLESTOWN     FAIR      31  20  63 W6        29.97S
WILLOW GROVE   NOT AVBL
NORTH PHILA    FAIR      34  20  56 W6        30.01S
PHILADELPHIA   FAIR      36  20  52 NW6       30.01F
$$



USA.gov is the U.S. government's official web portal to all federal, state and local government web resources and services.